FENGYUN 1C DEB

Satellite information

Favourite Embed

Satellite Type and Status

DEBRISIN ORBIT

Key statistics

Satellite FENGYUN 1C DEB at a glance.

Uptime

9668

Days in orbit

Revolutions

≈ 13.4

Per day

Orbit

SSO

Sun Synchronous Orbit

Inclination

102.8

Latest

Satellite identification and parameters

Extended collection of information and parameters for FENGYUN 1C DEB.

Object identification

Identified? True

Debris? True

Object name: FENGYUN 1C DEB

International designator: 1999-025CTR

Object number (NORAD): 32171

Object ID (CCSDS): 32171

Country: PEOPLES REPUBLIC OF CHINA (PRC)

Current information (Y/N): Y

RCS size: SMALL

Orbital parameters

Period: 107.301 minutes

Inclination: 102.8022 deg

SMA: 7479.923 km

Apoapsis: 1463.023 km

Periapsis: 740.552 km

RAAN: 184.3547 deg

Eccentricy: 0.048294

Argument of periapsis: 107.0665 deg

Mean anomaly: 275.9695 deg

Mean motion: 13.42014184 rev/day

Mean motion (dot): 0.00003735 rev/day2

B* drag term: 0.0033791 1/REarth

Two-line elements (TLE)

Creation date: Oct. 27, 2025, 6:56 a.m.

Reference frame: TEME

Reference center: EARTH

Epoch: Oct. 26, 2025, 10:54 p.m. UTC

TLE line 0: 0 FENGYUN 1C DEB

TLE line 1: 1 32171U 99025CTR 25299.95445840 .00003735 00000-0 33791-2 0 9998

TLE line 2: 2 32171 102.8022 184.3547 0482940 107.0665 275.9695 13.42014184599885

Live tracking on map

Real-time ground track for satellite FENGYUN 1C DEB.

In-orbit conjunctions

A list of the most updated potential collisions computed for object FENGYUN 1C DEB.

Target Orbit TCA Probability of collision Miss distance Type
NADEZHDA 1 LEO 2025-06-14 23:15:18 0.0001961194 465.0 (m) PAYLOAD
COSMOS 2188 LEO 2025-05-18 00:42:47 0.0004813694 411.0 (m) PAYLOAD

Associated space launch

Chinese polar orbiting meteorological satellite

FENGYUN 1C DEB was lifted into orbit during the mission ‘Long March 4B | Feng Yun 1C’, on board a Long March 4B space rocket.

The launch took place on May 10, 1999, 1:33 a.m. from Launch Complex 7.

For more information about the launch, click the button.

Launch to space Long March 4B | Feng Yun 1C
Long March 4B | Feng Yun 1C

Agency: N/A

Status: Launch Successful

Launch date: May 10, 1999, 1:33 a.m. UTC

Rocket: Long March 4B

Launch pad: Launch Complex 7

Location: Taiyuan Satellite Launch Center, People's Republic of China

...

Latest news about this satellite

There are no fresh news available about this satellite. Check back as we update our databases every day.


Newsletter sign-up

Weekly statistics, charts and insights to help you stay on top of the space industry.